Location: *
(43.0833°N, 13.0500°E)
Time: 06:27:20
(UTC+00:00)

BREEZE-M DEB (TANK) - Pass Details

Date: 15 November 2019
Orbit: 309 x 13121 km, 49.6° (Epoch: 05 December)

Event Time Altitude Azimuth Distance (km) Brightness Sun altitude
Rises 17:43:34 0° 293° (WNW) 2,775 7.4 -21.7°
Reaches altitude 10° 17:46:24 10° 309° (NW) 1,403 5.5 -22.3°
Enters shadow 17:47:23 16° 325° (NW) 994 4.5 -22.4°
